Radiation Dose at Monitoring Post of Fukushima Daini Nuclear Power Station
Date,Time,MP-1(microSv/h),MP-2(microSv/h),MP-3(microSv/h),MP-4(microSv/h),MP-5(microSv/h),MP-6(microSv/h),MP-7(microSv/h),Wind Direction,Wind Velocity(m/s),Rain
2020/10/17,00:00,0.176,0.155,0.254,0.240,0.244,0.136,0.083,northwest,5.6,No
2020/10/17,00:10,0.175,0.155,0.252,0.241,0.241,0.135,0.082,north-northwest,5.8,No
2020/10/17,00:20,0.176,0.155,0.254,0.240,0.243,0.136,0.083,north-northwest,6.0,No
2020/10/17,00:30,0.175,0.154,0.253,0.241,0.243,0.136,0.083,north-northwest,6.0,No
2020/10/17,00:40,0.175,0.154,0.255,0.240,0.244,0.136,0.082,north-northwest,6.3,No
2020/10/17,00:50,0.175,0.155,0.252,0.241,0.242,0.136,0.082,northwest,6.1,No
2020/10/17,01:00,0.175,0.156,0.253,0.240,0.244,0.136,0.082,north-northwest,5.5,No
2020/10/17,01:10,0.175,0.155,0.254,0.239,0.243,0.135,0.082,northwest,5.1,No
2020/10/17,01:20,0.173,0.155,0.252,0.240,0.243,0.136,0.082,northwest,4.0,No
2020/10/17,01:30,0.175,0.155,0.256,0.240,0.243,0.136,0.082,northwest,4.7,No
2020/10/17,01:40,0.174,0.155,0.254,0.240,0.242,0.136,0.083,northwest,4.3,No
2020/10/17,01:50,0.175,0.155,0.253,0.241,0.244,0.137,0.082,northwest,4.0,No
2020/10/17,02:00,0.175,0.156,0.254,0.240,0.242,0.136,0.082,northwest,4.9,No
2020/10/17,02:10,0.175,0.155,0.253,0.240,0.244,0.136,0.082,northwest,5.0,No
2020/10/17,02:20,0.175,0.155,0.254,0.240,0.242,0.136,0.082,northwest,4.7,No
2020/10/17,02:30,0.174,0.155,0.254,0.241,0.244,0.136,0.083,northwest,4.8,No
2020/10/17,02:40,0.176,0.155,0.253,0.240,0.243,0.135,0.082,northwest,4.5,No
2020/10/17,02:50,0.175,0.156,0.255,0.241,0.241,0.136,0.082,north-northwest,4.4,No
2020/10/17,03:00,0.177,0.156,0.252,0.241,0.244,0.136,0.082,northwest,5.1,No
2020/10/17,03:10,0.174,0.156,0.254,0.239,0.242,0.135,0.083,north-northwest,5.7,No
2020/10/17,03:20,0.176,0.156,0.253,0.239,0.243,0.136,0.082,northwest,5.6,No
2020/10/17,03:30,0.175,0.155,0.254,0.240,0.243,0.136,0.082,northwest,4.5,No
2020/10/17,03:40,0.175,0.155,0.254,0.239,0.244,0.135,0.083,northwest,5.6,No
2020/10/17,03:50,0.177,0.155,0.254,0.240,0.242,0.136,0.082,north-northwest,5.4,No
2020/10/17,04:00,0.175,0.155,0.256,0.239,0.244,0.136,0.082,north-northwest,5.8,No
2020/10/17,04:10,0.175,0.155,0.254,0.241,0.243,0.136,0.083,northwest,5.2,No
2020/10/17,04:20,0.175,0.155,0.254,0.239,0.244,0.136,0.082,northwest,5.2,No
2020/10/17,04:30,0.175,0.156,0.256,0.241,0.243,0.137,0.082,northwest,4.5,No
2020/10/17,04:40,0.174,0.155,0.253,0.241,0.242,0.135,0.082,north-northwest,4.8,No
2020/10/17,04:50,0.175,0.155,0.255,0.239,0.245,0.135,0.082,northwest,3.6,No
2020/10/17,05:00,0.175,0.155,0.253,0.241,0.242,0.135,0.083,northwest,3.3,No
2020/10/17,05:10,0.175,0.155,0.252,0.240,0.244,0.135,0.083,northwest,3.2,No
2020/10/17,05:20,0.175,0.155,0.254,0.240,0.242,0.136,0.083,northwest,2.6,No
2020/10/17,05:30,0.175,0.154,0.253,0.240,0.244,0.136,0.083,northwest,3.7,No
2020/10/17,05:40,0.176,0.155,0.255,0.239,0.243,0.136,0.082,north-northwest,2.5,No
2020/10/17,05:50,0.176,0.155,0.253,0.241,0.242,0.135,0.082,north-northwest,3.2,No
2020/10/17,06:00,0.173,0.154,0.253,0.239,0.244,0.136,0.082,north-northwest,4.6,No
2020/10/17,06:10,0.176,0.156,0.255,0.241,0.241,0.136,0.083,north-northwest,4.4,No
2020/10/17,06:20,0.175,0.155,0.252,0.241,0.244,0.135,0.082,north-northwest,4.2,No
2020/10/17,06:30,0.176,0.156,0.255,0.239,0.241,0.136,0.082,north-northwest,4.1,No
2020/10/17,06:40,0.175,0.156,0.254,0.240,0.243,0.136,0.082,north-northwest,4.9,Yes
2020/10/17,06:50,0.176,0.154,0.253,0.240,0.242,0.136,0.082,north-northwest,4.6,Yes
2020/10/17,07:00,0.175,0.155,0.254,0.240,0.243,0.135,0.082,northwest,4.7,Yes
2020/10/17,07:10,0.175,0.155,0.255,0.240,0.243,0.136,0.083,northwest,4.4,Yes
2020/10/17,07:20,0.176,0.155,0.255,0.240,0.243,0.136,0.083,northwest,4.1,Yes
2020/10/17,07:30,0.175,0.155,0.253,0.241,0.243,0.136,0.083,northwest,4.6,Yes
2020/10/17,07:40,0.175,0.156,0.255,0.240,0.243,0.136,0.084,north-northwest,5.3,Yes
2020/10/17,07:50,0.176,0.156,0.255,0.241,0.245,0.137,0.084,north-northwest,5.4,Yes
2020/10/17,08:00,0.177,0.156,0.256,0.241,0.243,0.137,0.085,northwest,5.8,Yes
2020/10/17,08:10,0.177,0.157,0.256,0.242,0.247,0.138,0.085,northwest,6.1,Yes
2020/10/17,08:20,0.177,0.158,0.255,0.242,0.243,0.138,0.085,northwest,5.7,Yes
2020/10/17,08:30,0.178,0.157,0.256,0.240,0.246,0.138,0.085,northwest,6.0,Yes
2020/10/17,08:40,0.177,0.159,0.255,0.243,0.243,0.138,0.085,northwest,6.0,Yes
2020/10/17,08:50,0.178,0.159,0.256,0.243,0.247,0.140,0.086,northwest,6.0,Yes
2020/10/17,09:00,0.180,0.160,0.258,0.243,0.246,0.140,0.087,northwest,5.7,Yes
2020/10/17,09:10,0.180,0.160,0.257,0.244,0.246,0.142,0.087,north-northwest,5.5,Yes
2020/10/17,09:20,0.181,0.160,0.258,0.244,0.248,0.141,0.088,north-northwest,5.2,Yes
2020/10/17,09:30,0.179,0.160,0.257,0.244,0.246,0.141,0.089,northwest,6.1,Yes
2020/10/17,09:40,0.180,0.160,0.259,0.243,0.247,0.141,0.088,north-northwest,6.9,Yes
2020/10/17,09:50,0.178,0.159,0.258,0.244,0.247,0.141,0.088,north-northwest,6.5,Yes
2020/10/17,10:00,0.180,0.159,0.257,0.243,0.248,0.140,0.087,northwest,7.3,Yes
2020/10/17,10:10,0.179,0.159,0.258,0.244,0.247,0.139,0.087,northwest,6.4,Yes
2020/10/17,10:20,0.180,0.160,0.256,0.243,0.246,0.140,0.088,northwest,6.2,Yes
2020/10/17,10:30,0.180,0.159,0.257,0.243,0.246,0.140,0.087,northwest,6.0,Yes
2020/10/17,10:40,0.179,0.158,0.256,0.243,0.246,0.140,0.087,northwest,6.2,Yes
2020/10/17,10:50,0.178,0.158,0.254,0.241,0.247,0.140,0.087,north-northwest,5.5,Yes
2020/10/17,11:00,0.178,0.159,0.256,0.243,0.245,0.140,0.087,northwest,5.0,Yes
2020/10/17,11:10,0.179,0.159,0.254,0.243,0.246,0.140,0.086,northwest,4.8,Yes
2020/10/17,11:20,0.179,0.159,0.255,0.241,0.244,0.140,0.086,northwest,4.3,Yes
2020/10/17,11:30,0.177,0.157,0.255,0.242,0.245,0.140,0.086,northwest,4.8,Yes
2020/10/17,11:40,0.178,0.158,0.254,0.242,0.244,0.139,0.087,northwest,4.3,Yes
2020/10/17,11:50,0.177,0.158,0.256,0.242,0.245,0.139,0.086,northwest,4.3,Yes
2020/10/17,12:00,0.180,0.159,0.254,0.240,0.245,0.140,0.087,northwest,4.7,Yes
2020/10/17,12:10,0.177,0.159,0.254,0.240,0.244,0.140,0.087,northwest,4.9,Yes
2020/10/17,12:20,0.178,0.157,0.256,0.240,0.246,0.140,0.087,north-northwest,4.9,Yes
2020/10/17,12:30,0.179,0.160,0.254,0.240,0.243,0.139,0.086,northwest,4.3,Yes
2020/10/17,12:40,0.178,0.158,0.255,0.242,0.244,0.139,0.086,northwest,3.9,Yes
2020/10/17,12:50,0.179,0.159,0.254,0.241,0.244,0.140,0.086,north-northwest,4.0,Yes
2020/10/17,13:00,0.178,0.159,0.253,0.241,0.244,0.139,0.087,northwest,4.5,Yes
2020/10/17,13:10,0.178,0.157,0.254,0.240,0.246,0.140,0.086,northwest,4.4,Yes
2020/10/17,13:20,0.179,0.158,0.252,0.240,0.244,0.140,0.087,northwest,4.2,Yes
2020/10/17,13:30,0.177,0.158,0.253,0.240,0.247,0.138,0.086,northwest,3.7,Yes
2020/10/17,13:40,0.178,0.157,0.254,0.239,0.245,0.139,0.086,northwest,3.7,Yes
2020/10/17,13:50,0.178,0.158,0.252,0.239,0.245,0.139,0.086,west-northwest,3.4,Yes
2020/10/17,14:00,0.177,0.157,0.252,0.239,0.243,0.138,0.086,northwest,3.1,Yes
2020/10/17,14:10,0.179,0.158,0.251,0.239,0.243,0.138,0.086,northwest,3.8,Yes
2020/10/17,14:20,0.177,0.156,0.251,0.240,0.244,0.138,0.086,northwest,3.1,Yes
2020/10/17,14:30,0.178,0.156,0.251,0.238,0.243,0.138,0.086,northwest,2.9,Yes
2020/10/17,14:40,0.177,0.157,0.250,0.239,0.244,0.139,0.086,northwest,3.1,Yes
2020/10/17,14:50,0.175,0.156,0.252,0.238,0.242,0.138,0.086,northwest,3.2,Yes
2020/10/17,15:00,0.178,0.157,0.250,0.238,0.244,0.138,0.086,northwest,2.5,Yes
2020/10/17,15:10,0.177,0.157,0.250,0.239,0.244,0.139,0.087,northwest,2.3,Yes
2020/10/17,15:20,0.177,0.157,0.252,0.238,0.242,0.138,0.087,northwest,2.3,Yes
2020/10/17,15:30,0.177,0.158,0.250,0.238,0.244,0.139,0.086,northwest,1.8,Yes
2020/10/17,15:40,0.176,0.159,0.250,0.238,0.242,0.139,0.086,northwest,2.4,Yes
2020/10/17,15:50,0.178,0.157,0.251,0.238,0.244,0.139,0.085,northwest,1.6,Yes
2020/10/17,16:00,0.177,0.159,0.251,0.238,0.244,0.138,0.086,west-northwest,1.2,Yes
2020/10/17,16:10,0.178,0.157,0.252,0.239,0.245,0.139,0.087,-,CALM,Yes
2020/10/17,16:20,0.177,0.158,0.251,0.238,0.244,0.139,0.086,west-southwest,0.8,Yes
2020/10/17,16:30,0.176,0.159,0.251,0.239,0.245,0.139,0.088,west-southwest,1.2,Yes
2020/10/17,16:40,0.177,0.158,0.253,0.239,0.246,0.138,0.086,west-southwest,1.2,Yes
2020/10/17,16:50,0.177,0.159,0.250,0.240,0.244,0.139,0.087,southwest,2.6,Yes
2020/10/17,17:00,0.178,0.159,0.253,0.240,0.245,0.139,0.087,south-southwest,0.6,Yes
2020/10/17,17:10,0.177,0.158,0.252,0.239,0.244,0.140,0.088,south-southeast,0.9,Yes
2020/10/17,17:20,0.177,0.158,0.251,0.239,0.244,0.140,0.087,south,0.6,Yes
2020/10/17,17:30,0.178,0.158,0.252,0.240,0.246,0.140,0.088,south-southeast,1.2,Yes
2020/10/17,17:40,0.177,0.159,0.252,0.239,0.244,0.139,0.087,south-southeast,1.2,Yes
2020/10/17,17:50,0.177,0.158,0.251,0.241,0.246,0.140,0.087,south,1.3,Yes
2020/10/17,18:00,0.177,0.158,0.253,0.238,0.244,0.139,0.087,south,1.3,Yes
2020/10/17,18:10,0.176,0.158,0.251,0.239,0.244,0.138,0.087,south,1.4,Yes
2020/10/17,18:20,0.177,0.157,0.252,0.240,0.245,0.140,0.086,west-southwest,1.7,Yes
2020/10/17,18:30,0.177,0.157,0.251,0.238,0.243,0.138,0.087,south-southwest,1.9,Yes
2020/10/17,18:40,0.176,0.158,0.250,0.239,0.245,0.139,0.087,south-southwest,2.0,Yes
2020/10/17,18:50,0.177,0.157,0.251,0.238,0.243,0.138,0.087,southwest,2.2,Yes
2020/10/17,19:00,0.175,0.158,0.250,0.237,0.244,0.138,0.087,south-southwest,2.0,Yes
2020/10/17,19:10,0.177,0.158,0.250,0.239,0.244,0.138,0.087,southwest,1.8,Yes
2020/10/17,19:20,0.175,0.156,0.250,0.238,0.244,0.137,0.087,west-southwest,2.3,Yes
2020/10/17,19:30,0.175,0.156,0.249,0.238,0.244,0.138,0.085,west-southwest,1.7,Yes
2020/10/17,19:40,0.175,0.156,0.248,0.238,0.242,0.136,0.085,southwest,1.5,Yes
2020/10/17,19:50,0.174,0.155,0.249,0.236,0.243,0.138,0.085,-,CALM,Yes
2020/10/17,20:00,0.175,0.156,0.249,0.237,0.242,0.138,0.085,south-southwest,0.9,Yes
2020/10/17,20:10,0.175,0.155,0.250,0.236,0.242,0.137,0.085,west-southwest,1.4,Yes
2020/10/17,20:20,0.174,0.157,0.249,0.235,0.244,0.136,0.086,west,1.3,Yes
2020/10/17,20:30,0.175,0.157,0.249,0.237,0.241,0.137,0.086,west,1.5,Yes
2020/10/17,20:40,0.175,0.156,0.251,0.237,0.244,0.137,0.086,west,2.3,Yes
2020/10/17,20:50,0.176,0.157,0.250,0.236,0.242,0.138,0.087,west,1.1,Yes
2020/10/17,21:00,0.175,0.157,0.250,0.238,0.243,0.137,0.085,west,1.3,Yes
2020/10/17,21:10,0.175,0.156,0.251,0.237,0.243,0.137,0.086,west-northwest,1.9,Yes
2020/10/17,21:20,0.175,0.156,0.250,0.236,0.242,0.137,0.087,west-northwest,2.2,Yes
2020/10/17,21:30,0.175,0.155,0.248,0.237,0.243,0.137,0.086,west-northwest,1.3,Yes
2020/10/17,21:40,0.175,0.154,0.249,0.236,0.241,0.137,0.086,-,CALM,Yes
2020/10/17,21:50,0.174,0.155,0.248,0.236,0.242,0.136,0.086,west-southwest,0.8,Yes
2020/10/17,22:00,0.173,0.155,0.248,0.236,0.243,0.137,0.084,west-southwest,0.9,Yes
2020/10/17,22:10,0.174,0.154,0.249,0.236,0.241,0.136,0.085,west,2.1,Yes
2020/10/17,22:20,0.173,0.154,0.249,0.237,0.243,0.137,0.085,west-southwest,1.4,Yes
2020/10/17,22:30,0.174,0.155,0.249,0.236,0.239,0.135,0.085,southwest,1.4,Yes
2020/10/17,22:40,0.173,0.154,0.247,0.236,0.243,0.136,0.085,southwest,1.1,Yes
2020/10/17,22:50,0.172,0.155,0.248,0.236,0.242,0.137,0.085,southwest,1.6,Yes
2020/10/17,23:00,0.173,0.154,0.248,0.235,0.241,0.137,0.085,southwest,2.1,Yes
2020/10/17,23:10,0.172,0.154,0.248,0.235,0.242,0.135,0.084,southwest,2.0,Yes
2020/10/17,23:20,0.172,0.154,0.248,0.236,0.240,0.135,0.083,southwest,1.4,Yes
2020/10/17,23:30,0.172,0.154,0.247,0.236,0.240,0.134,0.084,southwest,2.2,Yes
2020/10/17,23:40,0.172,0.154,0.247,0.234,0.241,0.135,0.083,southwest,2.0,Yes
2020/10/17,23:50,0.170,0.153,0.248,0.235,0.239,0.134,0.083,west-southwest,2.8,Yes
